Laconia, New Hampshire, United States (03246)
Lat: 43.53N, Lon: 71.47W
Wx Zone: NHZ009
Local Info
Past Weather Observations for Monday, January 26, 2015

NOTE: This archive is for the closest National Weather Service station to Laconia. Information may differ from the station used for current weather conditions.

Click here for Long-term Archive

Time Weather Temperature Dewpoint Humidity Pressure Winds Precip Visibility
23:55
Overcast
14°F / -10°C -8°F / -22°C 37% 29.95 in
(1014 mb)
NE 19.6 mph
(NE 32 kph)
- 9SM
23:35
Overcast
14°F / -10°C -8°F / -22°C 37% 29.98 in
(1015 mb)
NE 15 mph
(NE 24 kph)
- 10SM
23:15
Overcast
14°F / -10°C -8°F / -22°C 37% 30.01 in
(1016 mb)
NE 16.1 mph
(NE 26 kph)
- 10SM
22:55
Overcast
16°F / -9°C -8°F / -22°C 34% 30.01 in
(1016 mb)
NE 16.1 mph
(NE 26 kph)
- 10SM
22:35
Overcast
16°F / -9°C -6°F / -21°C 37% 30.04 in
(1017 mb)
NE 15 mph
(NE 24 kph)
- 10SM
22:15
Overcast
16°F / -9°C -6°F / -21°C 37% 30.04 in
(1017 mb)
NE 15 mph
(NE 24 kph)
- 10SM
21:55
Overcast
16°F / -9°C -6°F / -21°C 37% 30.04 in
(1017 mb)
NE 12.7 mph
(NE 20 kph)
- 10SM
21:35
Overcast
16°F / -9°C -6°F / -21°C 37% 30.04 in
(1017 mb)
NE 13.8 mph
(NE 22 kph)
- 10SM
21:15
Overcast
16°F / -9°C -6°F / -21°C 37% 30.06 in
(1018 mb)
NE 11.5 mph
(NE 19 kph)
- 10SM
20:55
Overcast
16°F / -9°C -6°F / -21°C 37% 30.06 in
(1018 mb)
NE 13.8 mph
(NE 22 kph)
- 10SM
20:35
Overcast
16°F / -9°C -6°F / -21°C 37% 30.09 in
(1019 mb)
ENE 11.5 mph
(ENE 19 kph)
- 10SM
20:15
Overcast
16°F / -9°C -6°F / -21°C 37% 30.09 in
(1019 mb)
ENE 16.1 mph
(ENE 26 kph)
- 10SM
19:55
Overcast
16°F / -9°C -4°F / -20°C 41% 30.09 in
(1019 mb)
ENE 10.4 mph
(ENE 17 kph)
- 10SM
19:35
Overcast
16°F / -9°C -2°F / -19°C 45% 30.09 in
(1019 mb)
ENE 15 mph
(ENE 24 kph)
- 10SM
19:15
Overcast
18°F / -8°C -2°F / -19°C 41% 30.09 in
(1019 mb)
ENE 13.8 mph
(ENE 22 kph)
- 10SM
18:55
Overcast
18°F / -8°C -2°F / -19°C 41% 30.09 in
(1019 mb)
ENE 12.7 mph
(ENE 20 kph)
- 10SM
18:35
Overcast
18°F / -8°C °F / -18°C 45% 30.09 in
(1019 mb)
ENE 10.4 mph
(ENE 17 kph)
- 10SM
18:15
Overcast
18°F / -8°C -2°F / -19°C 41% 30.09 in
(1019 mb)
ENE 12.7 mph
(ENE 20 kph)
- 10SM
17:55
Overcast
18°F / -8°C -2°F / -19°C 41% 30.09 in
(1019 mb)
E 13.8 mph
(E 22 kph)
- 10SM
17:35
Overcast
18°F / -8°C -2°F / -19°C 41% 30.06 in
(1018 mb)
ENE 12.7 mph
(ENE 20 kph)
- 10SM
17:15
Mostly Cloudy
18°F / -8°C -2°F / -19°C 41% 30.09 in
(1019 mb)
ENE 8.1 mph
(ENE 13 kph)
- 10SM
16:55
Partly Cloudy
18°F / -8°C -2°F / -19°C 41% 30.09 in
(1019 mb)
E 11.5 mph
(E 19 kph)
- 10SM
16:35
Clear
18°F / -8°C -2°F / -19°C 41% 30.09 in
(1019 mb)
ENE 11.5 mph
(ENE 19 kph)
- 10SM
16:15
Clear
18°F / -8°C -2°F / -19°C 41% 30.09 in
(1019 mb)
ENE 10.4 mph
(ENE 17 kph)
- 10SM
15:55
Clear
18°F / -8°C -2°F / -19°C 41% 30.06 in
(1018 mb)
ENE 8.1 mph
(ENE 13 kph)
- 10SM
15:35
Clear
19°F / -7°C -4°F / -20°C 35% 30.06 in
(1018 mb)
ENE 12.7 mph
(ENE 20 kph)
- 10SM
15:15
Clear
19°F / -7°C -6°F / -21°C 32% 30.09 in
(1019 mb)
ENE 9.2 mph
(ENE 15 kph)
- 10SM
14:55
Clear
19°F / -7°C -6°F / -21°C 32% 30.09 in
(1019 mb)
E 9.2 mph
(E 15 kph)
- 10SM
14:35
Clear
18°F / -8°C -2°F / -19°C 41% 30.06 in
(1018 mb)
E 9.2 mph
(E 15 kph)
- 10SM
14:15
Clear
18°F / -8°C -2°F / -19°C 41% 30.06 in
(1018 mb)
ENE 6.9 mph
(ENE 11 kph)
- 10SM
13:55
Clear
18°F / -8°C -2°F / -19°C 41% 30.06 in
(1018 mb)
NE 5.8 mph
(NE 9 kph)
- 10SM
13:35
Clear
18°F / -8°C -2°F / -19°C 41% 30.06 in
(1018 mb)
NE 6.9 mph
(NE 11 kph)
- 10SM
13:15
Clear
18°F / -8°C -2°F / -19°C 41% 30.06 in
(1018 mb)
NNE 8.1 mph
(NNE 13 kph)
- 10SM
12:55
Clear
16°F / -9°C -2°F / -19°C 45% 30.09 in
(1019 mb)
NE 4.6 mph
(NE 7 kph)
- 10SM
12:35
Clear
14°F / -10°C -2°F / -19°C 48% 30.09 in
(1019 mb)
E 4.6 mph
(E 7 kph)
- 10SM
12:15
Clear
12°F / -11°C -2°F / -19°C 52% 30.09 in
(1019 mb)
NE 4.6 mph
(NE 7 kph)
- 10SM
11:55
Clear
12°F / -11°C -2°F / -19°C 52% 30.09 in
(1019 mb)
NE 5.8 mph
(NE 9 kph)
- 10SM
11:35
Clear
12°F / -11°C -2°F / -19°C 52% 30.12 in
(1020 mb)
ENE 5.8 mph
(ENE 9 kph)
- 10SM
11:15
Clear
10°F / -12°C -2°F / -19°C 56% 30.12 in
(1020 mb)
E 5.8 mph
(E 9 kph)
- 10SM
10:55
Clear
10°F / -12°C -2°F / -19°C 56% 30.15 in
(1021 mb)
Calm - 10SM
10:35
Clear
9°F / -13°C -4°F / -20°C 56% 30.15 in
(1021 mb)
Calm - 10SM
10:15
Clear
9°F / -13°C -2°F / -19°C 61% 30.15 in
(1021 mb)
Calm - 10SM
09:55
Clear
9°F / -13°C -4°F / -20°C 56% 30.15 in
(1021 mb)
Calm - 10SM
09:35
Clear
7°F / -14°C -6°F / -21°C 56% 30.12 in
(1020 mb)
Calm - 10SM
09:15
Clear
9°F / -13°C -2°F / -19°C 61% 30.12 in
(1020 mb)
Calm - 10SM
08:55
Clear
3°F / -16°C -4°F / -20°C 72% 30.12 in
(1020 mb)
Calm - 10SM
08:35
Clear
3°F / -16°C -2°F / -19°C 78% 30.12 in
(1020 mb)
Calm - 10SM
08:15
Clear
1°F / -17°C -4°F / -20°C 78% 30.09 in
(1019 mb)
Calm - 10SM
07:55
Clear
1°F / -17°C -6°F / -21°C 71% 30.09 in
(1019 mb)
Calm - 10SM
07:35
Clear
1°F / -17°C -6°F / -21°C 71% 30.09 in
(1019 mb)
Calm - 10SM
07:15
Clear
°F / -18°C -6°F / -21°C 78% 30.09 in
(1019 mb)
Calm - 10SM
06:55
Clear
1°F / -17°C -6°F / -21°C 71% 30.09 in
(1019 mb)
Calm - 10SM
06:35
Clear
1°F / -17°C -6°F / -21°C 71% 30.09 in
(1019 mb)
Calm - 10SM
06:15
Clear
1°F / -17°C -8°F / -22°C 65% 30.06 in
(1018 mb)
Calm - 10SM
05:55
Clear
1°F / -17°C -6°F / -21°C 71% 30.06 in
(1018 mb)
Calm - 10SM
05:35
Clear
1°F / -17°C -6°F / -21°C 71% 30.06 in
(1018 mb)
SW 3.5 mph
(SW 6 kph)
- 10SM
05:15
Clear
1°F / -17°C -6°F / -21°C 71% 30.04 in
(1017 mb)
Calm - 10SM
04:55
Clear
1°F / -17°C -8°F / -22°C 65% 30.06 in
(1018 mb)
SW 4.6 mph
(SW 7 kph)
- 10SM
04:35
Clear
1°F / -17°C -8°F / -22°C 65% 30.06 in
(1018 mb)
S 3.5 mph
(S 6 kph)
- 10SM
04:15
Clear
3°F / -16°C -8°F / -22°C 60% 30.04 in
(1017 mb)
S 4.6 mph
(S 7 kph)
- 10SM
03:55
Clear
5°F / -15°C -6°F / -21°C 60% 30.04 in
(1017 mb)
Calm - 10SM
03:35
Clear
3°F / -16°C -6°F / -21°C 66% 30.04 in
(1017 mb)
Calm - 10SM
03:15
Clear
3°F / -16°C -8°F / -22°C 60% 30.04 in
(1017 mb)
Calm - 10SM
02:55
Clear
5°F / -15°C -6°F / -21°C 60% 30.04 in
(1017 mb)
SW 4.6 mph
(SW 7 kph)
- 10SM
02:35
Clear
5°F / -15°C -6°F / -21°C 60% 30.04 in
(1017 mb)
S 4.6 mph
(S 7 kph)
- 10SM
02:15
Clear
5°F / -15°C -6°F / -21°C 60% 30.04 in
(1017 mb)
S 3.5 mph
(S 6 kph)
- 10SM
01:55
Clear
7°F / -14°C -6°F / -21°C 56% 30.04 in
(1017 mb)
SSW 4.6 mph
(SSW 7 kph)
- 10SM
01:35
Clear
7°F / -14°C -6°F / -21°C 56% 30.04 in
(1017 mb)
SW 9.2 mph
(SW 15 kph)
- 10SM
01:15
Clear
7°F / -14°C -6°F / -21°C 56% 30.04 in
(1017 mb)
SW 9.2 mph
(SW 15 kph)
- 10SM
00:55
Clear
7°F / -14°C -6°F / -21°C 56% 30.04 in
(1017 mb)
S 4.6 mph
(S 7 kph)
- 10SM
00:35
Clear
7°F / -14°C -6°F / -21°C 56% 30.01 in
(1016 mb)
SSW 9.2 mph
(SSW 15 kph)
- 10SM
00:15
Clear
7°F / -14°C -6°F / -21°C 56% 30.01 in
(1016 mb)
SSW 3.5 mph
(SSW 6 kph)
- 10SM
Time Weather Temperature Dewpoint Humidity Pressure Winds Precip Visibility


Weather for websites

WeatherForYou.com, LLC is not responsible for any damages or problems caused by this service. Current weather conditions are obtained from the closest station including government and personal stations which may have varying degrees of accuracy. Weather forecasts are derived from the NOAA NDFD. Like all things, this site belongs to Jesus Christ... He just trusts me to maintain it. If you have any questions or comments email webmaster@weatherforyou.com

Copyright © 2015, WeatherForYou.com LLC. All rights reserved.